AirNav   Pilot Hours Calculator
 
 1159 users online  

4KY6 Jennie Stuart Medical Center Heliport
Hopkinsville, Kentucky, USA

GOING TO HOPKINSVILLE?


FAA INFORMATION EFFECTIVE 31 DECEMBER 2020

Location

FAA Identifier: 4KY6
Lat/Long: 36-51-38.9100N 087-29-51.6500W
36-51.648500N 087-29.860833W
36.8608083,-87.4976806
(estimated)
Elevation: 550 ft. / 168 m (estimated)
Variation: 01W ()
From city: 1 mile S of HOPKINSVILLE, KY
Time zone: UTC -6 (UTC -5 during Daylight Saving Time)
Zip code: 42240

Heliport Operations

Heliport use: Private use, MEDICAL USE.
Activation date: 07/2000
Control tower: no
ARTCC: MEMPHIS CENTER
FSS: LOUISVILLE FLIGHT SERVICE STATION
Attendance: UNATNDD
Wind indicator: lighted, ROOFTOP WINDSOCK.
Segmented circle: no
Lights: SS-SR

Heliport Communications

WX AWOS-3 at HVC (2.1 nm E): 132.575 (270-886-6311)
WX ASOS at CKV (15 nm S): 134.575 (931-431-3045)
WX AWOS-3 at EOD (18 nm S): PHONE 270-956-3100

Nearby radio navigation aids

VOR radial/distance  VOR name  Freq  Var
CKVr345/14.9CLARKSVILLE VOR/DME110.6001W

 
NDB name  Hdg/Dist  Freq  Var  ID
AIRBE333/8.427301WFK ..-. -.-

Heliport Services

Runway Information

Helipad H1

Dimensions: 40 x 40 ft. / 12 x 12 m
Surface: mats
Runway edge lights: PERI
Latitude: 36-51.648500N
Longitude: 087-29.860833W
Elevation: 550.0 ft.
Traffic pattern: leftleft

Heliport Ownership and Management from official FAA records

Ownership: Privately-owned
Owner: JENNIE STUART MEDICAL CENTER
320 WEST 18TH STREET
HOPKINSVILLE, KY 42240
Phone 270-887-0100
Manager: KENNY OUTLAND
320 WEST 18TH STREET
HOPKINSVILLE, KY 42240
Phone 270-887-0158
ERIC LEE

Additional Remarks

60 FT TREES 160 FT SOUTH, 30 FT POWER LINES 150 FT FROM HELIPAD IN ALL QUADRANTS.
FOR CD CTC CAMPBELL APCH AT 270-798-6441.

Instrument Procedures

There are no published instrument procedures at 4KY6.

Some nearby airports with instrument procedures:

KHVC - Hopkinsville-Christian County Airport (2 nm E)
KHOP - Campbell Army Airfield (Fort Campbell) (11 nm S)
KCKV - Outlaw Field Airport (15 nm S)
KEOD - Sabre Army Airfield (Fort Campbell) (18 nm S)
2M0 - Princeton-Caldwell County Airport (23 nm NW)
 
Loc | Ops | Rwys | IFR | FBO | Links
Com | Nav | Svcs | Stats | Notes
Area around 4KY6 (Jennie Stuart Medical Center Heliport)
 
Road maps at: MapQuest Bing Google
 
Aerial photo
No photo
 
Sectional chart

 
Airport distance calculator
Flying to Jennie Stuart Medical Center Heliport? Find the distance to fly.

From to 4KY6

Sunrise and sunset
Times for 16-Jan-2021
 Local
(UTC-6)
 Zulu
(UTC)
Morning civil twilight06:3512:35
Sunrise07:0313:03
Sunset16:5722:57
Evening civil twilight17:2523:25

Current date and time
Zulu (UTC)  16-Jan-2021 16:41:01
Local (UTC-6)  16-Jan-2021 10:41:01
 
METAR
KHOP 
12nm S 
161611Z AUTO 27011KT 10SM BKN018 02/01 A2985 RMK AO2 SLP115
KCKV 
15nm S 
161552Z AUTO 30013KT 10SM BKN016 BKN026 OVC049 02/M01 A2985 RMK AO2 SLP113 T00221006
KEOD 
18nm S 
161558Z AUTO 29010KT 10SM OVC019 02/M01 A2986 RMK AO2 SLP119
TAF
KHOP 
12nm S 
161600Z 1616/1722 30015KT 9999 OVC025 620405 QNH2985INS BECMG 1619/1620 27015G20KT 9999 BKN020 620208 QNH2985INS BECMG 1622/1623 26009KT 9999 OVC020 620208 QNH2985INS BECMG 1711/1712 VRB06KT 9000 -RASN BKN010 620209 QNH2985INS BECMG 1716/1717 24015KT 9999 NSW SCT010 QNH2984INS TX03/1621Z TN00/1713Z
KCKV 
15nm S 
161428Z 1614/1712 28008G19KT P6SM FEW018 BKN030 OVC050 FM161900 27012G19KT P6SM SCT030 FM170000 26008KT P6SM VCSH BKN025
NOTAMs
Click for the latest NOTAMs
NOTAMs are issued by the DoD/FAA and will open in a separate window not controlled by AirNav.

 

 
 

Would you like to see your business listed on this page?

 If your business provides an interesting product or service to pilots, flight crews, aircraft, or users of the Jennie Stuart Medical Center Heliport, you should consider listing it here.  To start the listing process, click on the button below
 
Add a business
 

Other Pages about Jennie Stuart Medical Center Heliport

Update a link
 
Copyright © AirNav, LLC. All rights reserved. Privacy Policy  Contact